Date String (YYYY-MM-DD hh:mm:ss) UTC,Instrument flags,absolute air pressure of the measurement (hPa),sample flow rate (lpm),inlet stack bypass flow (lpm),air temperature of the measurement (°C),ambient temperature measured by the external sensor (°C),aerosol sample conditioner tube jacket temperature (°C),OPC LED temperature (°C),internal box temperature (°C),relative humidity of the measurement (%),span deviation,mass concentration of particles derived from Lorenz-Mie calculation of OPC scattering (μg/m³),mass concentration of particles derived from Lorenz-Mie calculation of OPC scattering (μg/m³),mass concentration of particles derived from Lorenz-Mie calculation of OPC scattering (μg/m³)
DateTimeUTC,F1_M11,P_M11,Q1_M11,Q2_M11,T1_M11,T2_M11,T3_M11,T4_M11,T5_M11,U1_M11,ZSPAN_M11,X0_M11,X2_M11,X1_M11
2024-01-21 04:00:00,SystemResetWarning,0823.5,5.00,000.00,019.9,019.2,000.0,028.3,021.2,14.8,0001.6,0029.88,0019.93,0018.36
2024-01-21 04:01:00,SystemResetWarning,0823.5,5.01,000.00,019.9,019.2,000.0,028.3,021.2,15.0,0001.9,0029.39,0019.97,0018.41
2024-01-21 04:02:00,SystemResetWarning,0823.6,5.00,000.00,019.9,019.2,000.0,028.3,021.2,15.3,0002.5,0030.00,0019.97,0018.43
2024-01-21 04:03:00,SystemResetWarning,0823.5,5.00,000.00,019.9,019.2,000.0,028.3,021.2,15.2,0002.1,0029.51,0020.02,0018.45
2024-01-21 04:04:00,SystemResetWarning,0823.4,4.99,000.00,019.9,019.2,000.0,028.3,021.1,15.1,0001.9,0029.43,0020.04,0018.49
2024-01-21 04:05:00,SystemResetWarning,0823.4,4.99,000.00,019.9,019.2,000.0,028.3,021.2,15.1,0001.9,0029.52,0020.07,0018.53
2024-01-21 04:06:00,SystemResetWarning,0823.4,5.00,000.00,019.9,019.2,000.0,028.3,021.2,15.1,0001.6,0029.16,0020.05,0018.57
2024-01-21 04:07:00,SystemResetWarning,0823.3,5.01,000.00,019.9,019.2,000.0,028.3,021.2,15.2,0001.8,0028.83,0020.07,0018.62
2024-01-21 04:08:00,SystemResetWarning,0823.4,5.01,000.00,019.9,019.2,000.0,028.3,021.2,15.1,0001.9,0028.16,0020.08,0018.68
2024-01-21 04:09:00,SystemResetWarning,0823.4,5.00,000.00,019.9,019.2,000.0,028.3,021.2,15.1,0002.3,0028.70,0020.09,0018.71
2024-01-21 04:10:00,SystemResetWarning,0823.4,4.99,000.00,019.9,019.2,000.0,028.3,021.2,15.0,0002.5,0029.52,0020.05,0018.69
2024-01-21 04:11:00,SystemResetWarning,0823.4,4.99,000.00,019.9,019.2,000.0,028.3,021.1,15.1,0002.6,0031.29,0020.04,0018.71
2024-01-21 04:12:00,SystemResetWarning,0823.3,4.99,000.00,019.9,019.2,000.0,028.3,021.1,15.2,0002.4,0031.73,0020.08,0018.74
2024-01-21 04:13:00,SystemResetWarning,0823.3,5.01,000.00,019.9,019.2,000.0,028.3,021.1,15.1,0002.4,0031.48,0020.13,0018.79
2024-01-21 04:14:00,SystemResetWarning,0823.3,5.02,000.00,019.9,019.2,000.0,028.3,021.1,15.1,0002.4,0031.86,0020.16,0018.83
2024-01-21 04:15:00,SystemResetWarning,0823.3,5.00,000.00,019.9,019.1,000.0,028.3,021.1,15.1,0002.5,0031.88,0020.16,0018.84
2024-01-21 04:16:00,SystemResetWarning,0823.3,4.99,000.00,019.9,019.1,000.0,028.3,021.1,15.0,0002.8,0031.94,0020.17,0018.90
2024-01-21 04:17:00,SystemResetWarning,0823.3,4.99,000.00,019.9,019.1,000.0,028.3,021.1,14.9,0003.2,0032.60,0020.18,0018.93
2024-01-21 04:18:00,SystemResetWarning,0823.3,5.01,000.00,019.9,019.1,000.0,028.3,021.2,14.9,0003.1,0033.15,0020.16,0018.95
2024-01-21 04:19:00,SystemResetWarning,0823.3,5.02,000.00,019.9,019.1,000.0,028.3,021.2,14.8,0003.1,0033.99,0020.21,0018.96
2024-01-21 04:20:00,SystemResetWarning,0823.3,4.99,000.00,019.9,019.1,000.0,028.3,021.2,14.8,0002.9,0034.00,0020.22,0019.01
2024-01-21 04:21:00,SystemResetWarning,0823.3,4.99,000.00,019.9,019.1,000.0,028.3,021.2,14.8,0003.0,0033.26,0020.28,0019.08
2024-01-21 04:22:00,SystemResetWarning,0823.3,4.99,000.00,019.9,019.1,000.0,028.3,021.1,14.8,0002.8,0031.33,0020.41,0019.17
2024-01-21 04:23:00,SystemResetWarning,0823.3,4.99,000.00,019.9,019.1,000.0,028.3,021.1,14.8,0002.8,0031.11,0020.48,0019.25
2024-01-21 04:24:00,SystemResetWarning,0823.3,5.00,000.00,019.9,019.1,000.0,028.2,021.1,14.8,0002.7,0031.03,0020.52,0019.32
2024-01-21 04:25:00,SystemResetWarning,0823.3,5.01,000.00,019.8,019.1,000.0,028.2,021.1,14.9,0002.9,0030.76,0020.57,0019.40
2024-01-21 04:26:00,SystemResetWarning,0823.3,5.01,000.00,019.8,019.1,000.0,028.2,021.1,14.9,0003.0,0031.21,0020.63,0019.49
2024-01-21 04:27:00,SystemResetWarning,0823.3,5.01,000.00,019.8,019.1,000.0,028.2,021.1,14.9,0002.8,0031.12,0020.65,0019.51
2024-01-21 04:28:00,SystemResetWarning,0823.3,5.00,000.00,019.8,019.1,000.0,028.2,021.2,14.9,0002.6,0030.76,0020.72,0019.60
2024-01-21 04:29:00,SystemResetWarning,0823.3,4.99,000.00,019.8,019.1,000.0,028.2,021.2,14.9,0002.4,0030.47,0020.89,0019.72
2024-01-21 04:30:00,SystemResetWarning,0823.2,4.99,000.00,019.8,019.1,000.0,028.2,021.1,14.9,0002.5,0029.80,0020.99,0019.82
2024-01-21 04:31:00,SystemResetWarning,0823.3,5.00,000.00,019.8,019.1,000.0,028.2,021.1,14.9,0002.5,0029.96,0021.13,0019.87
2024-01-21 04:32:00,SystemResetWarning,0823.2,5.01,000.00,019.8,019.1,000.0,028.2,021.1,14.9,0002.3,0030.68,0021.19,0019.93
2024-01-21 04:33:00,SystemResetWarning,0823.2,5.00,000.00,019.8,019.1,000.0,028.2,021.1,14.9,0002.3,0031.20,0021.19,0019.96
2024-01-21 04:34:00,SystemResetWarning,0823.2,4.99,000.00,019.8,019.1,000.0,028.2,021.1,14.9,0002.3,0032.44,0021.19,0020.00
2024-01-21 04:35:00,SystemResetWarning,0823.2,5.00,000.00,019.8,019.1,000.0,028.2,021.1,14.9,0002.3,0032.09,0021.18,0020.03
2024-01-21 04:36:00,SystemResetWarning,0823.3,4.99,000.00,019.8,019.1,000.0,028.2,021.1,14.8,0001.9,0032.18,0021.27,0020.08
2024-01-21 04:37:00,SystemResetWarning,0823.1,4.99,000.00,019.8,019.0,000.0,028.2,021.0,14.8,0001.7,0031.76,0021.36,0020.14
2024-01-21 04:38:00,SystemResetWarning,0823.1,5.00,000.00,019.8,019.0,000.0,028.2,021.0,14.8,0001.8,0031.30,0021.47,0020.25
2024-01-21 04:39:00,SystemResetWarning,0823.1,5.01,000.00,019.8,019.0,000.0,028.2,021.0,14.8,0001.7,0031.13,0021.56,0020.32
2024-01-21 04:40:00,SystemResetWarning,0823.1,5.00,000.00,019.8,019.0,000.0,028.2,021.0,14.9,0002.1,0031.17,0021.61,0020.38
2024-01-21 04:41:00,SystemResetWarning,0823.1,5.00,000.00,019.8,019.0,000.0,028.2,021.0,15.0,0001.9,0031.59,0021.64,0020.44
2024-01-21 04:42:00,SystemResetWarning,0823.1,5.00,000.00,019.8,019.0,000.0,028.2,021.0,14.9,0001.8,0031.62,0021.69,0020.52
2024-01-21 04:43:00,SystemResetWarning,0823.0,5.01,000.00,019.8,019.0,000.0,028.2,021.0,14.9,0001.9,0031.29,0021.74,0020.58
2024-01-21 04:44:00,SystemResetWarning,0823.0,5.00,000.00,019.8,019.0,000.0,028.2,021.1,14.9,0001.6,0031.68,0021.74,0020.59
2024-01-21 04:45:00,SystemResetWarning,0823.1,5.00,000.00,019.8,019.0,000.0,028.2,021.1,14.9,0001.4,0030.85,0021.81,0020.63
2024-01-21 04:46:00,SystemResetWarning,0823.1,4.99,000.00,019.8,019.0,000.0,028.2,021.1,14.9,0001.8,0030.94,0021.91,0020.68
2024-01-21 04:47:00,SystemResetWarning,0823.1,5.00,000.00,019.8,019.0,000.0,028.2,021.1,14.9,0001.9,0030.98,0021.96,0020.71
2024-01-21 04:48:00,SystemResetWarning,0823.1,5.00,000.00,019.8,019.0,000.0,028.2,021.0,14.9,0001.8,0030.95,0021.91,0020.69
2024-01-21 04:49:00,SystemResetWarning,0823.0,5.00,000.00,019.8,019.0,000.0,028.1,021.0,15.0,0001.4,0031.15,0021.90,0020.68
2024-01-21 04:50:00,SystemResetWarning,0823.0,5.00,000.00,019.8,019.0,000.0,028.1,021.0,15.0,0001.6,0031.51,0021.91,0020.69
2024-01-21 04:51:00,SystemResetWarning,0823.2,5.00,000.00,019.8,019.0,000.0,028.1,021.1,14.9,0001.6,0031.53,0021.89,0020.68
2024-01-21 04:52:00,SystemResetWarning,0823.0,5.01,000.00,019.8,019.0,000.0,028.2,021.1,14.9,0001.9,0031.45,0021.92,0020.72
2024-01-21 04:53:00,SystemResetWarning,0823.3,5.01,000.00,019.8,019.0,000.0,028.1,021.1,14.9,0002.0,0031.16,0021.92,0020.76
2024-01-21 04:54:00,SystemResetWarning,0823.0,5.00,000.00,019.8,019.0,000.0,028.2,021.1,14.9,0001.8,0031.10,0021.98,0020.80
2024-01-21 04:55:00,SystemResetWarning,0822.9,4.99,000.00,019.8,019.0,000.0,028.1,021.1,14.9,0002.0,0030.37,0022.07,0020.88
2024-01-21 04:56:00,SystemResetWarning,0823.2,4.99,000.00,019.8,019.0,000.0,028.2,021.1,14.9,0002.2,0030.62,0022.14,0020.94
2024-01-21 04:57:00,SystemResetWarning,0823.1,5.00,000.00,019.8,019.0,000.0,028.2,021.1,14.9,0002.0,0031.65,0022.23,0021.02
2024-01-21 04:58:00,SystemResetWarning,0822.9,5.01,000.00,019.8,019.0,000.0,028.2,021.0,14.9,0001.9,0032.11,0022.25,0021.07
2024-01-21 04:59:00,SystemResetWarning,0823.1,5.01,000.00,019.8,019.0,000.0,028.1,021.1,14.9,0002.0,0032.38,0022.27,0021.11
